Starlink 31995

operational
NORAD ID: 59958 Int'l Des: 2024-107 Owner: SPXS Country: US Constellation: starlink
LEOCIRCULAR

Über Starlink 31995

Beschreibung wird geladen...

Live-Position

3D-Globus wird geladen...

Nächste Überflüge

Höhenverlauf

Altitude vs Time

uPlot chart will show altitude changes over time

Zweizeiliger Elementsatz

1 59958U 24107P 25354.50503789 .00000913 00000-0 42955-4 0 9998
2 59958 53.1605 73.2872 0001082 64.3436 295.7676 15.30186401 86470
Epoch: 20. Dez. 2025 • Age: 17 hours

Aktueller Status

Höhe 482.7 km
Geschwindigkeit 7.62 km/s
Subsatellitenpunkt -25.17°S, 118.93°W
Startdatum 5. Juni 2024
Alter 1.5 years
Typ internet

Technische Details

Klassifizierung Payload
Masse 730.00 kg
Trockenmasse 700.00 kg
Gesamtmasse 730.00 kg
Länge 0.30 m
Durchmesser 4.10 m
Spannweite 29.00 m
Form Box + pan
Hersteller SPXS
Bus-Typ Starlink V2M
Phasenstatus In Orbit
Besitzer/Staat SPXS/US

Große Konstellationen

Loading constellations...